Palmdale, CA

1:06 PM PDT on May 23, 2017 (GMT -0700)
Palmdale Af Plant 42

Weather History for KPMD - July, 2013

Change the Weather History Date:

Thursday, July 4, 2013

  Actual Average Record
Temperature  
Mean Temperature 91 °F 79 °F  
Max Temperature 104 °F 96 °F 110 °F (1991)
Min Temperature 77 °F 63 °F 44 °F (1979)
Degree Days  
Heating Degree Days 0 0  
Month to date heating degree days 0 0  
Since 1 June heating degree days 0 7  
Since 1 July heating degree days 0 0  
Cooling Degree Days 26 14  
Month to date cooling degree days 104 56  
Year to date cooling degree days 758 532  
Since 1 June cooling degree days 527 362  
Growing Degree Days 40 (Base 50)    
Moisture  
Dew Point 46 °F    
Average Humidity 25    
Maximum Humidity 35    
Minimum Humidity 14    
Precipitation  
Precipitation 0.00 in 0.00 in 0.00 in (2017)
Month to date precipitation T 0.01  
Year to date precipitation 0.86 5.33  
Since 1 July precipitation T  
Snow  
Snow 0.00 in - - ()
Month to date snowfall 0.0  
Since 1 June snowfall 0.0  
Since 1 July snowfall 0.0  
Snow Depth 0.00 in    
Sea Level Pressure  
Sea Level Pressure 29.72 in    
Wind  
Wind Speed 16 mph (SW)    
Max Wind Speed 30 mph    
Max Gust Speed 36 mph    
Visibility 10 miles    
Events      
T = Trace of Precipitation, MM = Missing Value Source: NWS Daily Summary

Daily Weather History Graph

Daily Weather History Graph

Search for Another Location

Airport or City:

Trip Planner

Search our weather history database for the weather conditions in past years. The results will help you decide how hot, cold, wet, or windy it might be!

Date:

Astronomy

Jul. 04, 2013 Rise Set
Actual Time 5:44 AM PDT 8:08 PM PDT
Civil Twilight 5:15 AM PDT 8:38 PM PDT
Nautical Twilight 4:39 AM PDT 9:14 PM PDT
Astronomical Twilight 3:59 AM PDT 9:53 PM PDT
Moon 3:01 AM PDT (7/4) 5:19 PM PDT (7/4)
Length of Visible Light 15h 22m
Length of Day
14h 24m
Waning Crescent, 11% of the Moon is Illuminated
Jul 4
Waning Crescent
Jul 8
New
Jul 15
First Quarter
Jul 22
Full
Jul 29
Last Quarter

Hourly Weather History & Observations

Time (PDT) Temp. Dew Point Humidity Pressure Visibility Wind Dir Wind Speed Gust Speed Precip Events Conditions
12:53 AM 82.0 °F 48.0 °F 30% 29.77 in 10.0 mi SSW 10.4 mph - N/A   Clear
1:53 AM 80.1 °F 48.0 °F 32% 29.75 in 10.0 mi SSW 8.1 mph - N/A   Clear
2:53 AM 80.1 °F 48.0 °F 32% 29.73 in 10.0 mi SSW 11.5 mph - N/A   Clear
3:53 AM 79.0 °F 48.0 °F 34% 29.72 in 10.0 mi SSW 10.4 mph - N/A   Clear
4:53 AM 78.1 °F 48.0 °F 35% 29.72 in 10.0 mi SSW 11.5 mph - N/A   Clear
5:53 AM 78.1 °F 48.0 °F 35% 29.72 in 10.0 mi SSW 11.5 mph - N/A   Clear
6:53 AM 81.0 °F 46.9 °F 30% 29.74 in 10.0 mi SW 9.2 mph - N/A   Clear
7:53 AM 86.0 °F 48.0 °F 27% 29.75 in 10.0 mi SW 10.4 mph - N/A   Clear
8:53 AM 91.9 °F 46.0 °F 21% 29.75 in 10.0 mi SW 8.1 mph - N/A   Clear
9:53 AM 95.0 °F 46.0 °F 19% 29.74 in 10.0 mi WSW 4.6 mph - N/A   Clear
10:53 AM 98.1 °F 45.0 °F 16% 29.72 in 10.0 mi WNW 5.8 mph - N/A   Clear
11:53 AM 100.9 °F 46.0 °F 15% 29.72 in 10.0 mi WSW 11.5 mph 19.6 mph N/A   Clear
12:53 PM 102.0 °F 45.0 °F 14% 29.71 in 10.0 mi WSW 18.4 mph - N/A   Clear
1:53 PM 102.9 °F 45.0 °F 14% 29.70 in 10.0 mi WSW 16.1 mph 25.3 mph N/A   Clear
2:53 PM 102.0 °F 45.0 °F 14% 29.68 in 10.0 mi SW 24.2 mph 31.1 mph N/A   Clear
3:53 PM 100.9 °F 45.0 °F 15% 29.67 in 10.0 mi SW 26.5 mph - N/A   Clear
4:53 PM 97.0 °F 46.0 °F 18% 29.66 in 10.0 mi SW 29.9 mph 34.5 mph N/A   Clear
5:53 PM 95.0 °F 46.9 °F 19% 29.67 in 10.0 mi SW 19.6 mph 27.6 mph N/A   Clear
6:53 PM 91.9 °F 46.9 °F 21% 29.69 in 10.0 mi SW 26.5 mph - N/A   Clear
7:53 PM 87.1 °F 46.0 °F 24% 29.70 in 10.0 mi SW 25.3 mph - N/A   Clear
8:53 PM 84.9 °F 46.0 °F 26% 29.70 in 10.0 mi SW 24.2 mph - N/A   Clear
9:53 PM 84.0 °F 45.0 °F 25% 29.72 in 10.0 mi SW 17.3 mph - N/A   Clear
10:53 PM 82.9 °F 46.0 °F 27% 29.73 in 10.0 mi SW 16.1 mph - N/A   Clear
11:53 PM 82.0 °F 46.9 °F 29% 29.73 in 10.0 mi SW 16.1 mph - N/A   Clear